Regional Weather Roundup
Issued by NWS

Home | Current Version | Previous Version | Text Only | Print | Product List | Glossary On
Versions: 1 2 3 4 5 6 7 8 9 10 11 12 13 14 15 16 17 18 19 20 21 22 23 24 25 26 27 28 29 30 31 32 33 34 35 36 37 38 39 40 41 42 43 44 45 46 47 48 49 50
000
ASUS46 KLOX 270412
RWRCA

SOUTHERN CALIFORNIA WEATHER ROUNDUP
NATIONAL WEATHER SERVICE OXNARD CALIFORNIA
800 PM PST MON JAN 26 2015

NOTE: "FAIR" INDICATES FEW OR NO CLOUDS BELOW 12,000 FEET WITH NO
SIGNIFICANT WEATHER AND/OR OBSTRUCTIONS TO VISIBILITY.

  -  STATIONS PRECEEDED BY AN ASTERISK (*) ARE NOT NWS OR FAA
     STATIONS AND ARE NOT SUBJECT TO NWS AND FAA QUALITY CONTROL.

CAZ041-042-087-270500-
LA AND ORANGE COUNTY COASTAL AREAS


CITY           SKY/WX    TMP DP  RH WIND       PRES   REMARKS
L.A. DOWNTOWN  LGT RAIN  58  51  78 VRB5      30.09R
L.A. AIRPORT   RAIN      58  52  80 E5        30.10R
LONG BEACH     RAIN      57  54  89 E6        30.09R

CITY           SKY/WX    TMP DP  RH WIND       PRES   REMARKS
AVALON           N/A    N/A N/A N/A MISG        N/A
FULLERTON      LGT RAIN  57  53  86 E3        30.09R
HAWTHORNE      LGT RAIN  60  53  77 E6        30.10R
*LOS ALAMITOS  CLOUDY    57  54  88 NE6       30.09S
*REDONDO BEACH   N/A     57  53  85 CALM      30.10R
SANTA ANA      CLOUDY    60  53  77 NE6       30.08F
STA MONICA APT LGT RAIN  60  53  77 NE5       30.10R
*STA MON PIER    N/A     60  53  77 N3        30.09S
TORRANCE       RAIN      59  55  88 SE7       30.10R
*UCLA            N/A     55  52  88 NE1       30.07S

$$

CAZ547-548-048-270500-
LA COUNTY VALLEYS AND INLAND EMPIRE


CITY           SKY/WX    TMP DP  RH WIND       PRES   REMARKS
BURBANK        LGT RAIN  57  52  83 E6        30.09R
VAN NUYS       LGT RAIN  57  52  83 SE6       30.10R

CITY           SKY/WX    TMP DP  RH WIND       PRES   REMARKS
CORONA AIRPORT MOCLDY    55  55 100 CALM      30.10R
CHINO          CLOUDY    56  53  90 NW5       30.11R
MARCH AFB      LGT RAIN  54  54 100 NW3       30.08R
*NORTHRIDGE      N/A     55  50  82 NE1         N/A
ONTARIO        LGT RAIN  55  53  93 W10       30.09R FOG
*PASADENA        N/A     55  54  94 CALM        N/A
POMONA         CLOUDY    54  54 100 VRB6      30.13R
RIVERSIDE      CLOUDY    56  54  93 W5        30.09R
SAN BERNARDINO CLOUDY    55  52  88 CALM      30.09R
*WHITEMAN AP   LGT RAIN  55  52  88 E5        30.13R
*WOODLAND HILL   N/A     55  52  88 SE1         N/A

$$

CAZ054-055-270500-
LA AND SAN BERNARDINO COUNTY MOUNTAINS


CITY           SKY/WX    TMP DP  RH WIND       PRES   REMARKS
*ACTON           N/A     50  47  88 N3          N/A
*BIG BEAR AIRP RAIN      37  36  93 W5        30.14R WCI  34
*BIG PINES       N/A     37  37  98 CALM        N/A
*CHILAO          N/A     41  39  93 W3          N/A
MT WILSON NWS    N/A    N/A N/A N/A MISG        N/A
SANDBERG       LGT RAIN  46  42  86 E22G31    30.11R FOG
*WARM SPRINGS    N/A     45  45 100 NE21        N/A

$$

CAZ028-029-059-060-099-270500-
ANTELOPE VALLEY AND SURROUNDING AREAS


CITY           SKY/WX    TMP DP  RH WIND       PRES   REMARKS
LANCASTER      CLOUDY    50  47  89 NE10      30.12R
PALMDALE       CLOUDY    51  48  89 NE15      30.10R

CITY           SKY/WX    TMP DP  RH WIND       PRES   REMARKS
29 PALMS       CLOUDY    51  48  89 SE12      30.20R
BARSTOW/DAGGET LGT RAIN  52  48  86 NE13      30.12S
BISHOP         CLOUDY    54  33  45 S22G28    30.10S
CHINA LAKE     RAIN      50  49  96 S3        30.14R FOG
EDWARDS AFB    CLOUDY    51  49  91 NE12      30.10R
MOJAVE         CLOUDY    48  48 100 NE12      30.12S
NEEDLES        RAIN      56  50  80 SW5       30.15R
VICTORVILLE    CLOUDY    48  46  93 CALM      30.10R

$$

CAZ039-040-270500-
VENTURA AND SANTA BARBARA COUNTY COAST


CITY           SKY/WX    TMP DP  RH WIND       PRES   REMARKS
CAMARILLO      LGT RAIN  59  52  77 NE10      30.08R
NWS OXNARD       N/A     59  52  76 CALM      30.08R
OXNARD AIRPORT LGT RAIN  62  51  67 E10       30.07R
*POINT MUGU    LGT RAIN  63  54  72 SE14      30.09R
SBA APT/GOLETA CLOUDY    63  52  67 SE6       30.05R
*SANTA BARBARA   N/A     64  50  60 W3        30.14R
*VENTURA         N/A     60  51  71 CALM      30.11S

$$

CAZ044-045-270500-
VENTURA COUNTY VALLEYS


CITY           SKY/WX    TMP DP  RH WIND       PRES   REMARKS
*SIMI VALLEY     N/A     56  52  89 CALM      30.05R
*OJAI            N/A     55  52  89 E1        30.05R
*FILLMORE        N/A     58  53  81 CALM      29.99R

$$

CAZ053-270500-
VENTURA COUNTY MOUNTAINS


CITY           SKY/WX    TMP DP  RH WIND       PRES   REMARKS
*LOCKWOOD VLY    N/A     43  37  81 MISG        N/A
*ROSE VALLEY     N/A     46  46 100 MISG        N/A

$$

CAZ034-035-036-270500-
CENTRAL COAST AND SANTA YNEZ VALLEY


CITY           SKY/WX    TMP DP  RH WIND       PRES   REMARKS
SAN LUIS OBISP CLOUDY    63  37  38 CALM      30.01R
SANTA MARIA    CLOUDY    67  38  34 SE6       30.02S

CITY           SKY/WX    TMP DP  RH WIND       PRES   REMARKS
*CAL POLY SLO    N/A     61  43  51 NE2         N/A
*LOMPOC        CLOUDY    66  39  37 SE5       30.03R
*PISMO BEACH     N/A     62  50  66 CALM      30.01S
*SANTA YNEZ    CLOUDY    63  41  45 SE13      30.04R

$$

CAZ037-038-051-270500-
SAN LUIS OBISPO COUNTY INTERIOR AND CUYAMA VALLEY


CITY           SKY/WX    TMP DP  RH WIND       PRES   REMARKS
*CUYAMA          N/A     58  43  59 CALM      29.99S
PASO ROBLES    CLOUDY    53  46  77 NE6       30.01S

$$

CAZ032-033-061-270500-
SOUTHERN DESERTS


CITY           SKY/WX    TMP DP  RH WIND       PRES   REMARKS
BLYTHE         CLOUDY    55  53  93 N7        30.14R
IMPERIAL       CLOUDY    57  55  93 CALM      30.13R
PALM SPRINGS   CLOUDY    57  55  93 SE5       30.14R
THERMAL        CLOUDY    57  56  96 CALM      30.12R

$$

ELSEWHERE ACROSS THE WESTERN UNITED STATES AND MEXICO


CITY           SKY/WX    TMP DP  RH WIND       PRES   REMARKS
DENVER, CO     CLEAR     42  26  53 S13       30.21F
GRAND CANYON,  MOCLDY    43  22  43 E6        30.28F
HONOLULU, HI   PTCLDY    75  59  57 NE14G28   29.92R
KAHULUI, MAUI  PTCLDY    72  61  68 NE16G23   29.91R
LAKE TAHOE, CA CLOUDY    42  28  57 CALM      30.13R
LAS VEGAS, NV  CLOUDY    58  47  66 SW12      30.10R
MAMMOTH LAKES, CLOUDY    41  25  52 E3        30.17R
MEXICO CITY, M PTCLDY    61  32  33 W8        30.40R
PHOENIX, AZ    CLOUDY    61  45  55 SE3       30.13R
PORTLAND, OR   PTCLDY    45  42  89 E3        29.98R
RENO, NV       MOCLDY    50  29  44 CALM      30.09R
SALT LAKE CITY PTCLDY    36  32  85 CALM      30.23S
SAN DIEGO, CA  MOCLDY    61  48  62 NE5       30.07S
SAN FRANCISCO, CLOUDY    59  47  64 CALM      29.98S
SAN JOSE, CA   CLOUDY    59  43  55 CALM      29.99R
SEATTLE, WA    PTCLDY    52  47  83 SE7       29.97R
TIJUANA, MEX   MOCLDY    59  46  63 N8        30.08S

$$

STATION/POSITION TIME  TEMP    WIND        PRES    VSBY  WAVE
                       AIR SEA DIR/SP/G                  HT/PER
                 (UTC) (F)     (DEG/KT/KT) (MB)    (MI)  (FT/S)
POINT ARGUELLO B NOT AVBL
WEST SANTA BARBA 0400   62 60  120/ 12/ 14 1016.4R         7/15
POINT CONCEPTION NOT AVBL
EAST SANTA BARBA NOT AVBL
SANTA MONICA BAY 0400   60 62   90/ 14/ 17 1018.5R         4/16


USA.gov is the U.S. government's official web portal to all federal, state and local government web resources and services.